Temperature
11 11 11 11 11 9 8 8 9 9 9 10 9 9 9 9 9 9 9 9 9 8 8 7 7 6 6 5 5 5 4 4 4 4 4 4 4 4 4 3 3 3 3 2
10 10 9 9 9 9 8 8 8 8 8 8 8 8 8 9 9 9 8 8 8 7 7 6 6 5 5 4 4 4 4 4 4 4 3 3 3 3 3 3 2 2 2 1
9 9 9 8 9 9 8 7 7 8 8 8 7 7 8 8 8 8 8 7 7 6 6 5 5 4 4 4 3 3 3 3 3 3 3 3 2 2 2 1 1 1 1 0
7 9 8 10 10 9 8 8 7 7 7 7 8 8 9 8 8 7 7 6 6 5 5 4 4 3 3 3 3 3 3 3 2 2 2 2 1 1 1 0 -0 -0 -1 -1
6 7 7 8 8 7 7 7 7 6 6 7 7 7 7 7 7 6 6 5 5 4 4 4 3 3 3 3 3 2 2 2 2 1 1 1 0 0 -0 -1 -1 -2 -2 -2
5 7 7 9 9 9 8 7 7 7 6 7 6 5 5 7 6 5 5 4 4 4 3 3 3 3 2 2 2 2 1 1 1 0 -0 -0 -1 -1 -1 -2 -2 -3 -3 -3
5 6 7 8 8 8 8 8 7 7 7 7 5 5 6 5 5 4 4 4 3 3 3 3 2 2 2 2 1 1 1 0 0 -0 -1 -1 -1 -2 -2 -3 -3 -3 -4 -4
5 6 7 8 7 7 7 7 7 7 7 6 6 6 5 4 4 4 3 3 3 3 3 3 2 1 1 1 1 0 0 -0 -0 -1 -1 -2 -2 -2 -3 -4 -4 -5 -5 -5
6 7 7 7 7 8 8 7 7 7 6 6 5 5 4 4 3 3 3 3 2 2 2 2 2 1 1 0 -0 -0 -0 -0 -1 -1 -2 -2 -3 -3 -4 -4 -5 -6 -6 -6
4 5 6 6 7 7 7 7 6 6 5 5 4 4 3 3 3 3 3 2 2 2 1 1 1 1 0 -0 -1 -1 -1 -1 -2 -2 -2 -3 -4 -4 -5 -6 -6 -6 -6 -6
4 4 5 5 6 6 6 6 5 5 4 4 3 3 3 3 3 2 2 2 1 1 1 1 0 0 0 -1 -1 -2 -2 -2 -2 -3 -3 -4 -4 -5 -6 -6 -7 -6 -6 -6
5 5 4 5 6 6 5 5 4 4 3 3 3 3 2 2 2 2 2 1 1 1 0 0 0 -0 -0 -1 -2 -2 -3 -3 -3 -4 -4 -5 -6 -6 -6 -7 -6 -6 -6 -6
5 6 6 5 5 5 4 4 3 3 3 3 2 2 2 2 2 1 1 1 1 0 0 -0 -0 -1 -1 -2 -2 -3 -3 -4 -4 -5 -5 -6 -7 -7 -7 -7 -6 -6 -6 -6
5 5 4 4 4 4 3 3 3 3 2 2 2 2 2 1 1 1 1 0 0 -0 -0 -1 -1 -1 -1 -2 -3 -3 -4 -4 -5 -5 -6 -7 -7 -7 -7 -7 -7 -7 -6 -6
4 4 4 3 3 3 3 3 2 2 2 2 2 2 1 1 1 1 1 0 -0 -0 -0 -1 -1 -1 -2 -3 -3 -4 -4 -5 -5 -6 -7 -7 -7 -7 -7 -7 -7 -7 -7 -6
3 3 3 3 3 2 2 2 2 2 2 2 2 1 1 1 1 0 0 -0 -1 -1 -1 -1 -2 -2 -3 -3 -4 -4 -5 -5 -6 -7 -7 -7 -7 -7 -7 -7 -7 -7 -7 -7
2 2 2 2 2 2 2 2 2 1 1 1 1 1 1 0 0 0 -0 -1 -1 -1 -1 -2 -2 -3 -3 -4 -4 -5 -5 -6 -6 -7 -7 -7 -7 -7 -7 -7 -7 -7 -7 -7
2 2 2 2 2 2 2 1 1 1 1 1 0 0 -0 -0 -1 -1 -1 -1 -1 -2 -2 -2 -3 -3 -4 -4 -5 -5 -6 -7 -7 -7 -7 -7 -7 -7 -7 -7 -7 -7 -7 -7
2 1 1 1 1 1 1 1 1 0 0 0 -0 -0 -1 -1 -1 -1 -2 -2 -2 -2 -2 -3 -3 -4 -4 -5 -5 -6 -6 -7 -7 -7 -8 -8 -8 -8 -8 -8 -8 -8 -7 -7
1 1 1 1 1 1 0 0 0 -0 -0 -1 -1 -1 -1 -1 -2 -2 -2 -3 -2 -3 -3 -3 -4 -4 -5 -5 -6 -6 -7 -7 -8 -8 -8 -8 -8 -8 -8 -8 -8 -8 -8 -8
1 1 1 0 0 0 -0 -0 -1 -1 -1 -1 -2 -2 -2 -2 -2 -3 -3 -3 -3 -3 -4 -4 -4 -5 -5 -6 -6 -7 -7 -8 -8 -8 -8 -8 -8 -8 -8 -8 -8 -8 -8 -8
0 -0 -0 -0 -1 -1 -1 -1 -1 -1 -2 -2 -2 -2 -3 -3 -3 -3 -4 -4 -4 -4 -4 -5 -5 -5 -6 -7 -7 -7 -8 -8 -8 -8 -9 -9 -9 -9 -9 -9 -8 -8 -8 -8
-1 -1 -1 -1 -1 -1 -1 -1 -2 -2 -2 -3 -3 -3 -3 -4 -4 -4 -5 -4 -4 -5 -5 -5 -5 -6 -7 -7 -7 -8 -8 -8 -9 -9 -9 -9 -9 -9 -9 -9 -9 -8 -8 -8
-1 -1 -2 -2 -2 -2 -2 -2 -2 -3 -3 -3 -3 -4 -4 -5 -5 -4 -5 -5 -5 -5 -5 -5 -6 -6 -7 -7 -8 -8 -8 -9 -9 -9 -9 -10 -9 -9 -9 -9 -9 -9 -8 -8
-2 -2 -2 -2 -3 -3 -3 -3 -3 -4 -4 -4 -4 -4 -5 -5 -5 -5 -5 -5 -5 -6 -6 -6 -6 -7 -7 -8 -8 -8 -9 -9 -10 -10 -10 -10 -10 -9 -9 -9 -9 -9 -8 -8
-2 -2 -3 -3 -3 -3 -4 -4 -5 -5 -5 -5 -5 -5 -5 -5 -6 -6 -6 -6 -6 -6 -7 -7 -7 -7 -8 -8 -9 -9 -9 -9 -9 -10 -10 -10 -10 -10 -9 -9 -9 -9 -8 -8
-3 -3 -3 -3 -4 -4 -5 -5 -6 -6 -6 -6 -6 -6 -6 -6 -6 -7 -7 -7 -7 -7 -8 -8 -8 -8 -9 -9 -9 -10 -10 -10 -10 -10 -10 -10 -10 -10 -10 -9 -9 -9 -8 -8
Wind_Speed
5 3 5 7 8 9 10 10 11 10 10 10 8 7 4 4 3 2 1 2 3 4 5 6 7 7 7 7 7 6 7 8 9 10 9 10 10 11 11 11 12 12 12 13
2 0 3 6 10 11 12 9 10 9 10 6 3 2 4 4 3 2 1 3 5 6 7 7 7 7 7 7 7 7 8 9 10 10 10 11 11 12 12 12 12 12 12 13
4 2 4 8 11 11 8 7 8 9 7 2 2 3 3 3 3 1 3 5 6 7 7 7 7 6 7 8 8 8 9 10 10 11 11 12 12 12 13 13 12 13 12 13
3 2 8 8 2 6 6 5 7 5 3 4 4 2 1 2 2 2 4 5 6 6 7 6 6 6 7 8 8 9 10 11 11 11 12 13 13 13 14 12 13 13 14 14
5 5 9 9 5 7 7 4 4 6 5 4 3 3 3 1 1 2 3 4 5 5 5 6 7 7 8 9 9 10 11 11 11 11 13 14 14 15 14 14 14 13 14 14
5 5 8 7 2 4 5 3 3 6 6 5 4 1 3 2 2 4 5 4 5 6 5 7 7 7 8 10 10 11 12 12 12 12 13 15 16 16 14 13 15 15 15 14
6 7 9 7 3 6 4 6 6 7 6 6 5 5 4 3 4 4 5 6 6 6 6 7 8 7 9 11 11 12 12 12 12 12 13 15 15 14 14 15 16 16 16 15
7 7 10 3 7 8 6 5 6 6 5 5 5 4 3 4 5 6 6 6 6 6 8 9 8 8 10 12 12 12 12 13 13 13 12 13 14 15 14 14 16 15 15 15
9 8 2 1 5 3 6 6 5 4 3 2 2 3 3 4 5 6 6 6 6 7 9 10 9 9 11 13 13 13 13 13 13 14 12 11 13 15 14 13 13 14 13 14
4 5 3 2 4 4 4 5 4 3 2 1 2 3 4 5 5 6 6 7 7 8 10 11 11 10 11 13 12 12 14 14 13 13 14 11 10 11 12 13 13 14 14 15
4 3 2 2 3 4 3 3 2 1 0 1 2 4 4 5 6 6 7 7 7 9 11 13 12 12 12 12 12 13 13 13 13 12 13 13 11 11 13 12 15 17 15 14
6 5 6 5 5 4 4 2 2 2 1 1 3 5 5 6 6 7 8 8 9 10 11 13 13 13 12 11 10 12 13 12 11 11 12 12 14 15 18 20 26 27 26 24
3 2 3 3 3 4 3 3 2 3 3 2 3 4 5 5 6 7 9 10 11 12 12 13 13 14 13 11 10 11 12 13 12 11 12 13 13 15 16 18 22 24 25 25
2 3 3 3 3 3 2 2 1 1 2 3 4 5 6 7 8 9 11 12 11 12 13 13 13 14 13 11 11 11 11 14 14 11 12 13 13 14 14 16 17 13 17 23
2 3 3 2 2 2 2 2 1 2 3 5 5 6 8 9 10 11 12 12 11 12 13 13 14 15 12 10 11 12 11 10 11 11 12 12 13 13 14 15 15 14 13 15
2 3 3 3 2 1 1 0 2 4 5 6 8 9 10 10 11 12 12 11 11 13 14 13 14 14 12 11 11 11 10 18 18 13 12 13 13 13 13 13 14 13 13 13
4 3 2 1 0 1 2 3 5 7 7 9 10 11 11 11 12 13 13 11 11 12 13 14 15 14 12 11 11 10 10 13 19 15 12 13 13 13 13 13 13 13 13 15
4 3 2 2 2 3 5 6 7 8 8 10 11 10 11 12 14 15 15 13 12 12 12 13 13 12 11 11 10 9 10 11 11 12 12 12 13 12 12 13 13 14 13 14
4 2 1 1 3 4 5 7 8 8 10 10 11 12 12 12 13 14 14 12 13 15 12 10 16 13 11 13 15 9 10 12 12 11 12 16 15 12 12 12 13 13 12 12
3 2 3 4 5 5 7 8 9 10 10 10 11 12 14 14 13 13 13 13 12 11 11 13 13 10 10 11 16 9 9 11 12 12 12 12 12 12 12 12 12 12 12 11
4 4 5 6 7 8 9 9 10 11 12 11 11 13 15 15 13 11 12 13 12 10 11 17 11 8 9 12 16 8 8 10 11 11 12 12 12 13 12 12 12 12 11 11
4 5 7 8 8 10 10 9 10 12 12 12 12 13 14 14 13 12 11 11 12 15 11 8 8 13 16 18 8 7 8 10 10 10 11 11 12 12 12 12 12 12 11 10
7 7 8 9 10 11 11 11 11 11 12 13 13 13 14 13 11 11 13 9 8 15 12 8 13 21 23 12 6 7 9 10 11 11 11 11 12 12 12 12 11 11 10 10
8 9 9 9 9 10 12 13 11 10 11 12 12 13 12 12 11 9 10 15 18 20 11 14 21 22 21 8 7 8 9 10 10 10 11 11 11 11 11 11 11 10 10 10
9 9 9 9 9 10 11 12 11 11 11 10 11 12 10 9 10 11 10 11 16 18 10 14 20 21 12 7 8 9 9 10 11 12 10 10 11 11 11 11 11 10 10 9
9 8 9 9 9 9 9 9 10 10 10 12 11 9 8 8 9 10 9 10 12 17 12 9 10 13 9 9 9 9 9 11 12 10 10 11 11 11 11 11 12 10 9 9
8 8 8 8 8 8 8 8 10 11 11 12 13 11 10 9 9 10 11 10 10 10 9 9 8 8 8 9 9 9 9 9 9 9 10 10 10 10 11 11 10 9 9 8
Wind_Direction
235 206 180 210 209 195 200 204 218 235 233 247 249 245 223 179 152 128 86 352 325 310 304 307 312 313 313 310 311 312 313 309 301 297 295 294 294 292 291 288 286 283 284 283
260 166 214 252 242 227 227 226 234 256 268 256 245 144 145 161 156 150 307 315 313 310 310 311 311 311 313 310 308 310 306 299 297 297 297 295 294 293 293 291 288 285 284 284
243 304 352 270 238 219 214 208 198 224 236 177 121 137 165 178 173 206 293 302 306 307 305 305 305 306 304 300 304 305 299 297 297 297 296 295 296 296 295 294 290 289 286 284
171 140 238 244 190 176 187 223 204 199 179 153 157 175 212 178 170 268 296 303 307 306 305 305 304 303 298 299 302 301 298 296 295 296 296 297 297 295 295 293 292 291 290 287
158 219 271 287 233 177 181 240 207 173 158 136 100 40 337 235 177 270 291 294 292 293 293 299 301 301 305 305 303 300 298 296 296 297 298 300 299 297 297 297 296 292 290 289
156 196 242 248 191 157 117 239 209 154 150 145 116 73 269 277 317 312 314 311 308 309 306 304 302 306 305 301 302 300 298 297 296 295 296 298 298 298 298 296 296 296 293 290
187 219 257 249 194 129 172 234 167 154 158 161 178 204 238 313 321 316 316 314 314 311 303 297 299 304 299 299 297 294 295 296 296 294 293 295 296 296 297 298 297 296 295 293
173 204 247 201 143 178 193 136 141 154 169 186 216 257 299 316 314 321 320 315 313 307 301 299 299 299 297 296 294 295 296 297 297 296 295 300 298 299 298 298 299 299 299 298
194 212 268 179 171 154 136 140 159 169 185 194 238 277 299 302 306 306 302 298 295 293 296 298 295 291 292 295 298 300 300 299 299 299 296 293 295 299 302 299 298 300 300 299
225 254 232 142 122 117 124 139 151 152 160 178 241 273 286 288 291 296 293 293 292 296 297 299 297 291 285 292 297 299 301 302 302 303 304 299 293 294 297 300 300 299 299 299
228 236 135 209 191 158 129 108 99 67 140 216 235 263 268 276 282 283 286 287 287 288 290 292 294 293 291 292 297 299 300 301 302 301 301 304 300 295 297 292 293 298 299 299
215 206 183 209 203 171 160 184 212 220 238 236 223 248 267 271 273 278 283 286 290 289 288 291 294 295 294 292 291 296 303 304 304 304 303 303 305 304 299 299 301 301 301 301
204 159 161 164 146 152 169 196 208 207 219 245 261 254 263 272 276 279 283 286 285 287 288 291 294 294 295 293 290 289 292 299 302 301 302 304 305 307 309 308 305 304 303 305
167 118 120 136 150 157 160 166 165 183 243 251 260 270 272 274 278 282 282 282 282 285 288 289 291 292 293 292 290 289 289 296 300 298 299 300 302 303 304 306 309 309 307 308
97 113 145 135 116 116 127 132 114 305 294 288 275 276 278 279 281 281 282 284 286 286 287 289 291 292 294 292 291 291 294 296 296 296 297 299 300 301 301 300 301 304 306 309
99 88 99 109 111 109 114 116 285 285 285 283 284 281 277 275 277 281 283 283 284 287 290 291 291 291 294 293 292 294 293 300 307 304 302 302 302 301 302 302 302 303 305 306
133 121 111 104 98 274 263 261 260 268 276 279 279 282 286 288 288 288 286 281 275 278 282 285 287 289 290 288 288 293 295 300 305 305 300 300 301 301 302 302 303 303 302 302
145 144 157 183 215 266 283 283 277 276 275 275 282 286 287 287 289 290 290 291 290 287 282 278 280 287 285 285 288 289 292 295 297 299 300 302 303 302 303 302 302 302 302 304
95 91 61 296 269 263 270 278 281 279 280 283 285 285 284 283 283 285 289 291 293 295 291 279 294 298 289 291 300 290 291 295 299 300 302 303 306 303 302 301 302 302 304 307
38 11 335 311 299 280 279 281 283 285 284 284 286 288 289 288 285 286 288 286 280 276 282 290 292 284 283 288 299 291 292 297 302 303 304 303 303 303 303 302 303 303 305 305
338 324 316 305 297 290 282 281 284 286 288 286 284 285 287 289 288 286 288 292 287 278 283 293 296 290 293 297 301 295 296 300 302 302 303 303 303 303 303 304 304 305 305 306
303 298 297 294 293 292 289 285 283 285 289 288 285 284 287 291 291 288 276 276 285 293 297 286 284 294 304 307 300 297 299 301 301 301 301 302 303 304 304 304 305 305 305 304
286 285 287 287 286 288 291 288 284 283 284 285 287 288 287 288 290 291 294 288 284 294 300 286 296 304 309 311 298 297 298 300 300 300 300 300 301 302 304 305 304 304 303 303
282 283 282 283 287 289 290 289 285 283 280 282 282 280 282 289 289 278 275 290 298 300 296 295 304 307 312 308 295 294 295 297 297 296 297 301 303 303 303 303 302 302 303 302
275 277 279 283 284 282 281 286 290 289 286 285 282 280 276 274 280 289 287 287 293 300 295 298 304 308 308 292 291 291 293 293 296 301 302 304 304 303 302 301 302 304 304 302
272 274 274 270 269 276 280 284 288 290 292 294 294 291 286 283 281 284 288 287 285 294 296 291 292 297 292 288 289 290 292 297 300 300 298 299 301 301 300 300 301 301 301 300
274 274 277 280 275 266 269 277 285 289 290 292 296 296 294 293 292 291 290 291 291 290 290 290 288 287 287 288 289 291 292 293 293 295 297 298 299 299 299 299 300 299 300 299
Height
1506 1505 1508 1508 1509 1512 1515 1514 1515 1509 1508 1502 1500 1500 1500 1501 1502 1503 1504 1504 1504 1503 1502 1499 1497 1494 1491 1488 1484 1481 1477 1474 1470 1465 1461 1456 1450 1445 1439 1434 1428 1422 1416 1411
1507 1506 1508 1509 1506 1506 1506 1506 1506 1504 1502 1497 1496 1497 1498 1500 1501 1502 1502 1502 1501 1500 1498 1495 1492 1489 1486 1483 1480 1476 1472 1468 1463 1458 1453 1448 1442 1436 1430 1424 1418 1412 1406 1400
1512 1510 1507 1508 1496 1496 1498 1497 1499 1500 1497 1495 1496 1497 1498 1499 1500 1500 1500 1500 1498 1496 1494 1491 1488 1485 1481 1478 1475 1471 1466 1462 1457 1451 1445 1439 1433 1427 1420 1414 1407 1401 1395 1389
1513 1510 1512 1493 1488 1488 1491 1491 1492 1492 1493 1494 1495 1496 1497 1498 1498 1498 1498 1496 1494 1492 1489 1487 1484 1481 1477 1474 1470 1465 1460 1455 1449 1443 1437 1430 1424 1418 1411 1404 1397 1391 1384 1379
1515 1513 1503 1492 1486 1487 1490 1490 1488 1490 1491 1493 1494 1495 1496 1497 1497 1496 1495 1493 1491 1488 1486 1483 1480 1476 1472 1468 1464 1459 1453 1447 1442 1436 1429 1422 1415 1408 1402 1395 1387 1381 1375 1369
1512 1510 1503 1487 1482 1481 1486 1490 1487 1487 1490 1492 1494 1498 1497 1495 1494 1493 1491 1489 1487 1484 1482 1479 1475 1471 1467 1462 1457 1452 1446 1440 1434 1428 1421 1414 1407 1400 1393 1386 1378 1372 1365 1361
1506 1504 1493 1481 1479 1481 1491 1485 1485 1486 1488 1490 1491 1493 1493 1492 1490 1489 1487 1485 1483 1480 1478 1474 1471 1466 1461 1456 1451 1445 1438 1432 1426 1420 1414 1406 1398 1392 1385 1377 1370 1363 1357 1351
1501 1501 1491 1477 1478 1481 1480 1481 1482 1485 1487 1488 1489 1489 1488 1488 1486 1485 1483 1481 1479 1476 1473 1470 1466 1460 1454 1449 1444 1437 1431 1424 1418 1412 1405 1398 1391 1383 1377 1370 1362 1354 1348 1341
1483 1481 1477 1475 1475 1476 1478 1480 1482 1483 1485 1485 1485 1485 1485 1484 1483 1481 1479 1477 1474 1471 1467 1464 1460 1455 1449 1443 1437 1430 1423 1416 1409 1403 1396 1390 1383 1375 1368 1362 1355 1348 1341 1335
1480 1476 1475 1475 1475 1477 1478 1479 1481 1482 1482 1483 1482 1482 1482 1481 1480 1478 1476 1473 1470 1466 1461 1457 1453 1449 1443 1436 1430 1422 1415 1408 1401 1394 1387 1381 1375 1369 1362 1355 1348 1342 1336 1329
1476 1474 1474 1474 1475 1476 1477 1478 1479 1480 1480 1480 1480 1479 1479 1478 1476 1474 1471 1468 1465 1461 1456 1451 1446 1441 1436 1430 1423 1415 1407 1401 1394 1387 1380 1372 1366 1361 1355 1349 1345 1338 1331 1326
1471 1469 1471 1471 1473 1475 1476 1476 1477 1477 1477 1478 1477 1477 1476 1474 1472 1470 1467 1463 1459 1455 1450 1444 1439 1433 1428 1422 1416 1408 1400 1393 1386 1380 1373 1366 1358 1351 1347 1343 1337 1332 1326 1321
1466 1466 1468 1470 1471 1473 1474 1475 1475 1475 1475 1475 1475 1474 1472 1470 1468 1465 1461 1458 1453 1448 1443 1437 1431 1426 1420 1414 1408 1401 1394 1387 1380 1373 1366 1360 1353 1346 1338 1332 1329 1323 1318 1313
1464 1466 1467 1469 1470 1471 1472 1472 1473 1473 1473 1472 1471 1470 1468 1465 1462 1459 1455 1451 1446 1441 1435 1430 1423 1418 1413 1406 1400 1393 1387 1380 1374 1367 1360 1354 1348 1342 1335 1327 1320 1313 1309 1305
1463 1465 1466 1467 1468 1469 1470 1470 1470 1470 1470 1469 1467 1465 1463 1459 1456 1452 1448 1444 1438 1433 1428 1422 1416 1410 1405 1399 1392 1386 1379 1373 1366 1360 1354 1348 1342 1336 1330 1323 1316 1309 1303 1297
1462 1463 1464 1465 1466 1467 1468 1468 1467 1467 1466 1464 1462 1459 1456 1453 1448 1444 1440 1436 1430 1424 1419 1414 1408 1402 1397 1391 1384 1378 1372 1366 1361 1354 1348 1342 1336 1330 1324 1318 1311 1305 1299 1293
1460 1462 1463 1464 1465 1465 1465 1465 1464 1463 1461 1459 1456 1453 1449 1445 1440 1435 1431 1427 1422 1417 1412 1406 1400 1394 1389 1383 1377 1371 1364 1358 1353 1348 1342 1336 1330 1324 1318 1312 1306 1300 1294 1289
1459 1461 1462 1462 1462 1462 1462 1461 1460 1458 1456 1453 1449 1445 1441 1437 1432 1427 1422 1417 1412 1407 1403 1398 1392 1386 1381 1376 1370 1364 1358 1352 1346 1341 1335 1330 1324 1318 1313 1307 1301 1295 1289 1284
1458 1459 1460 1460 1460 1459 1458 1456 1454 1452 1449 1446 1442 1437 1433 1428 1424 1419 1413 1408 1403 1397 1393 1389 1384 1379 1373 1368 1363 1357 1351 1346 1340 1335 1329 1323 1318 1312 1306 1301 1295 1290 1285 1280
1457 1457 1457 1457 1456 1455 1453 1450 1448 1445 1441 1438 1433 1428 1423 1419 1415 1410 1405 1399 1395 1391 1385 1380 1375 1370 1365 1360 1355 1350 1345 1339 1334 1328 1322 1317 1311 1306 1301 1295 1290 1285 1280 1275
1454 1453 1453 1452 1450 1448 1446 1444 1440 1436 1433 1430 1425 1420 1415 1410 1406 1401 1396 1390 1386 1383 1378 1373 1368 1363 1358 1353 1348 1343 1338 1333 1327 1321 1316 1311 1305 1300 1295 1290 1285 1281 1276 1271
1450 1449 1447 1446 1443 1441 1439 1436 1433 1429 1424 1421 1416 1412 1407 1401 1396 1392 1387 1383 1378 1374 1370 1365 1361 1356 1351 1347 1341 1336 1331 1326 1320 1315 1310 1305 1300 1295 1290 1285 1280 1276 1271 1267
1445 1444 1442 1440 1437 1433 1430 1428 1425 1421 1416 1412 1408 1403 1399 1393 1389 1384 1378 1375 1371 1367 1362 1358 1353 1349 1345 1340 1335 1330 1324 1319 1314 1309 1304 1299 1295 1290 1285 1280 1275 1271 1266 1262
1440 1438 1436 1433 1430 1426 1422 1419 1416 1412 1408 1403 1399 1395 1391 1385 1380 1377 1373 1368 1364 1360 1355 1351 1346 1342 1337 1332 1327 1323 1317 1312 1307 1303 1298 1294 1289 1284 1279 1275 1270 1266 1262 1258
1434 1431 1429 1426 1422 1419 1415 1411 1407 1403 1399 1394 1390 1386 1383 1379 1374 1368 1365 1360 1356 1352 1347 1343 1339 1334 1330 1325 1320 1315 1311 1306 1301 1297 1292 1288 1283 1278 1274 1270 1266 1262 1258 1255
1427 1424 1421 1418 1415 1411 1407 1403 1399 1394 1390 1385 1381 1377 1374 1370 1366 1361 1356 1352 1348 1344 1339 1335 1330 1326 1322 1317 1313 1308 1304 1299 1295 1290 1286 1282 1277 1273 1268 1264 1261 1258 1254 1251
1419 1416 1413 1409 1406 1403 1400 1396 1391 1387 1383 1378 1373 1369 1365 1361 1357 1352 1348 1343 1339 1335 1330 1326 1322 1318 1314 1310 1305 1301 1297 1292 1288 1284 1280 1275 1271 1267 1263 1260 1256 1253 1250 1248